Location: Jastew
(49.9666°N, 20.6833°E)
Time: 23:57:52
(UTC+01:00)

ISS - Visible Passes

Search period start: 23 January 2019 00:00
Search period end: 02 February 2019 00:00
Orbit: 404 x 410 km, 51.6° (Epoch: 24 January)

Date Brightness Start Highest point End Pass type
(mag) Time Alt. Az. Time Alt. Az. Time Alt. Az.
23 Jan -1.6 18:39:44 10° SSW 18:41:05 20° SSW 18:41:05 20° SSW visible
24 Jan -2.2 17:48:57 10° SSW 17:51:32 21° SE 17:52:04 21° SE visible
24 Jan -0.5 19:24:26 10° WSW 19:24:47 12° WSW 19:24:47 12° WSW visible
25 Jan -1.5 16:58:38 10° S 17:00:23 14° SE 17:02:09 10° ESE visible
25 Jan -3.0 18:33:09 10° SW 18:35:41 45° SSW 18:35:41 45° SSW visible
26 Jan -3.0 17:41:59 10° SW 17:45:06 39° SSE 17:46:30 25° E visible
26 Jan -0.9 19:18:14 10° W 19:19:14 18° W 19:19:14 18° W visible
27 Jan -3.8 18:26:49 10° WSW 18:30:00 82° W 18:30:00 82° W visible
28 Jan -3.7 17:35:26 10° WSW 17:38:44 69° SSE 17:40:43 22° ENE visible
28 Jan -1.3 19:12:03 10° W 19:13:26 23° WNW 19:13:26 23° WNW visible
29 Jan -3.8 18:20:34 10° W 18:23:52 68° N 18:24:07 64° NNE visible
30 Jan -3.8 17:29:05 10° WSW 17:32:23 80° NNW 17:34:47 17° ENE visible
30 Jan -1.7 19:05:48 10° WNW 19:07:30 27° WNW 19:07:30 27° WNW visible
31 Jan -3.7 18:14:18 10° W 18:17:35 62° N 18:18:09 51° NE visible
01 Feb -3.7 17:22:47 10° W 17:26:04 65° N 17:28:49 14° ENE visible
01 Feb -2.2 18:59:27 10° WNW 19:01:32 36° WNW 19:01:32 36° WNW visible
